Temp
73 76 82 83 83 83 83 83 83 83 83 83 83 83 83 84 84 83 83 84 84 84 84 84 84 84 84 84 83 83 83 83 83 83 83 83 82 82 83 83 83 82 82
76 79 82 83 83 83 83 83 83 83 83 83 83 83 83 84 84 84 84 84 84 84 84 84 84 83 84 84 84 84 83 83 83 83 83 83 83 83 83 83 83 81 82
77 79 81 82 83 83 83 83 83 83 83 83 83 83 83 84 84 84 84 84 84 84 84 84 84 84 83 84 83 83 81 83 83 82 82 76 77 83 83 83 83 83 83
78 77 79 82 83 83 83 83 83 83 83 83 83 83 84 83 83 83 84 84 84 84 84 84 84 84 83 82 82 82 82 81 82 82 76 79 82 83 83 84 83 83 83
76 76 79 82 83 83 83 83 83 83 83 83 83 83 83 84 84 84 84 84 84 84 84 84 83 83 83 82 83 83 82 82 82 81 76 75 77 82 83 83 83 83 82
77 79 82 83 83 83 83 83 83 83 83 83 83 83 83 84 84 84 84 84 84 84 83 84 84 83 83 83 83 83 83 83 83 78 76 76 75 83 83 83 83 83 82
75 77 80 82 83 83 83 83 83 83 83 83 83 84 84 84 84 84 84 84 83 83 83 83 84 84 84 84 84 83 83 83 80 77 76 75 74 82 83 83 83 83 82
75 76 79 82 83 83 83 83 83 83 83 83 83 83 83 83 83 83 83 83 83 83 83 83 84 84 84 84 82 82 83 82 80 77 76 75 77 81 83 83 82 82 82
77 75 75 77 81 83 83 83 83 83 83 83 83 83 83 83 83 83 83 83 83 83 83 83 84 84 84 83 82 82 82 82 74 75 79 75 79 82 83 83 82 82 82
74 74 73 74 76 76 77 83 83 83 83 83 83 83 83 83 83 83 82 82 83 83 84 84 84 84 83 83 83 83 84 82 72 74 77 75 80 82 83 82 82 82 82
74 72 71 72 73 74 75 79 82 83 83 83 82 83 80 74 76 78 81 82 83 84 84 83 82 83 83 82 84 83 83 75 72 73 75 79 80 82 83 82 82 82 82
70 71 71 71 70 72 80 75 74 77 75 74 74 74 73 73 73 80 80 83 82 82 82 82 82 79 80 75 76 79 75 74 73 74 72 80 80 82 83 82 82 81 82
72 73 73 71 70 70 73 71 72 73 73 73 73 73 73 75 73 72 73 73 72 77 73 75 76 74 74 73 75 73 74 74 74 76 77 80 80 82 83 82 81 81 82
73 74 73 72 69 69 70 71 71 72 73 71 72 73 73 70 70 71 71 73 72 73 72 72 72 73 72 74 75 74 74 74 74 75 75 80 80 82 83 82 82 81 81
73 75 74 73 70 70 70 71 71 72 73 72 70 72 72 71 69 70 70 71 71 71 71 70 71 72 73 74 75 75 74 76 73 73 72 78 81 81 82 83 82 82 82
77 76 75 73 72 72 71 71 72 73 73 73 72 72 72 71 69 69 70 69 70 71 71 70 70 70 72 74 74 75 75 75 76 75 74 73 80 80 82 82 82 82 82
78 78 76 74 74 73 73 73 73 74 75 74 75 73 72 72 72 71 69 69 71 72 72 71 71 71 71 73 73 74 75 76 75 76 76 74 74 79 81 81 82 82 82
79 76 77 82 76 75 74 74 74 75 73 75 75 73 74 74 75 72 70 71 71 72 73 71 70 69 70 71 72 74 74 76 77 77 77 74 75 81 81 81 81 81 81
79 78 77 78 76 76 75 75 75 76 73 73 74 75 75 75 76 72 71 70 71 71 72 71 71 70 71 72 75 74 71 74 75 80 78 77 76 78 76 80 81 80 81
80 79 80 79 77 75 74 74 74 74 75 76 75 77 77 78 76 74 73 71 71 70 71 71 72 73 72 71 78 76 72 73 72 71 74 77 76 78 77 76 78 80 81
80 78 78 76 74 73 71 71 72 74 75 74 75 78 76 77 77 73 73 72 71 70 70 70 72 72 70 69 69 70 71 73 71 70 73 71 72 75 76 77 75 74 76
79 78 76 77 73 73 73 72 74 73 72 72 72 74 76 77 76 74 73 72 72 69 68 71 71 69 69 69 67 66 65 70 69 71 70 71 70 70 71 75 73 72 71
78 77 77 77 76 75 73 71 71 72 71 70 71 71 73 76 76 75 74 74 72 71 71 71 70 69 68 68 68 66 63 62 64 68 69 70 71 71 72 72 71 71 70
81 80 79 78 75 75 73 72 71 71 68 69 70 71 71 72 74 74 74 72 72 71 70 69 71 70 69 67 68 69 66 66 62 61 67 67 69 71 73 72 70 70 69
78 78 79 78 76 77 74 75 70 69 69 70 71 70 69 69 70 70 70 69 68 68 68 69 68 68 66 64 64 64 63 62 63 63 58 64 66 68 70 70 69 68 70
75 76 78 75 74 75 72 71 71 71 69 69 68 69 67 67 67 66 67 66 65 66 66 66 66 66 65 64 63 65 65 62 60 59 59 62 64 66 64 68 68 66 67
MSLP
1014.70 1014.47 1014.50 1014.61 1014.88 1015.05 1015.23 1015.27 1015.34 1015.41 1015.60 1015.72 1015.84 1015.95 1016.10 1016.11 1016.20 1016.26 1016.47 1016.58 1016.64 1016.78 1016.85 1016.90 1017.08 1017.16 1017.19 1017.20 1017.21 1017.25 1017.25 1017.22 1017.12 1017.13 1017.17 1017.30 1017.36 1017.46 1017.30 1017.29 1017.53 1017.80 1018.00
1014.25 1014.54 1014.62 1014.82 1015.01 1015.25 1015.32 1015.45 1015.53 1015.66 1015.82 1015.89 1016.05 1016.16 1016.31 1016.35 1016.38 1016.47 1016.66 1016.78 1016.98 1017.01 1017.28 1017.42 1017.52 1017.61 1017.62 1017.58 1017.56 1017.64 1017.55 1017.54 1017.48 1017.38 1017.46 1017.67 1017.74 1017.77 1017.77 1017.78 1018.01 1018.32 1018.43
1014.34 1014.52 1014.74 1014.94 1015.17 1015.37 1015.56 1015.70 1015.71 1015.78 1015.95 1016.11 1016.21 1016.35 1016.51 1016.49 1016.61 1016.78 1016.92 1016.96 1017.09 1017.26 1017.39 1017.52 1017.68 1017.76 1017.90 1017.98 1018.04 1018.10 1018.00 1017.83 1017.95 1017.97 1017.88 1018.09 1018.22 1018.12 1018.16 1018.28 1018.40 1018.61 1018.82
1014.34 1014.69 1014.88 1015.06 1015.33 1015.57 1015.75 1015.82 1015.83 1015.90 1016.07 1016.22 1016.33 1016.48 1016.56 1016.61 1016.78 1016.99 1017.07 1017.22 1017.33 1017.41 1017.52 1017.62 1017.84 1018.02 1018.17 1018.18 1018.20 1018.23 1018.35 1018.31 1018.32 1018.40 1018.40 1018.28 1018.10 1018.46 1018.61 1018.65 1018.76 1018.90 1019.12
1014.68 1014.89 1015.05 1015.24 1015.43 1015.72 1015.88 1015.99 1016.04 1016.13 1016.19 1016.26 1016.38 1016.57 1016.65 1016.72 1016.83 1017.01 1017.22 1017.46 1017.55 1017.76 1017.89 1017.93 1018.06 1018.20 1018.32 1018.29 1018.38 1018.35 1018.36 1018.37 1018.43 1018.51 1018.78 1018.67 1018.49 1018.60 1018.74 1019.02 1019.22 1019.31 1019.42
1014.80 1014.97 1015.12 1015.35 1015.54 1015.76 1015.88 1015.99 1016.07 1016.21 1016.28 1016.43 1016.66 1016.80 1016.85 1016.94 1017.11 1017.26 1017.38 1017.45 1017.62 1017.91 1018.09 1018.19 1018.17 1018.22 1018.32 1018.31 1018.31 1018.26 1018.26 1018.27 1018.31 1018.54 1018.61 1018.78 1018.78 1018.56 1018.82 1019.17 1019.43 1019.53 1019.58
1015.03 1015.09 1015.22 1015.38 1015.56 1015.76 1015.93 1015.99 1016.08 1016.23 1016.41 1016.61 1016.82 1016.85 1016.97 1017.07 1017.18 1017.36 1017.55 1017.65 1017.81 1018.04 1018.24 1018.36 1018.34 1018.28 1018.17 1018.10 1018.06 1018.05 1018.03 1018.04 1018.14 1018.44 1018.55 1018.75 1018.99 1018.70 1018.81 1019.17 1019.34 1019.50 1019.76
1015.23 1015.30 1015.39 1015.53 1015.66 1015.83 1015.95 1016.08 1016.24 1016.42 1016.66 1016.87 1017.04 1017.13 1017.29 1017.49 1017.56 1017.61 1017.70 1017.81 1017.98 1018.22 1018.31 1018.40 1018.36 1018.24 1018.07 1018.01 1017.92 1017.92 1017.91 1017.96 1017.95 1018.09 1018.23 1018.54 1018.88 1018.92 1018.89 1019.15 1019.43 1019.55 1019.66
1015.37 1015.54 1015.64 1015.72 1015.81 1015.85 1016.08 1016.34 1016.51 1016.75 1016.98 1017.14 1017.30 1017.43 1017.57 1017.64 1017.67 1017.67 1017.70 1017.86 1018.04 1018.17 1018.19 1018.26 1018.16 1018.02 1017.92 1017.99 1017.80 1017.76 1017.79 1017.90 1018.08 1017.99 1018.05 1018.30 1018.58 1018.99 1018.89 1019.09 1019.36 1019.50 1019.77
1015.74 1015.82 1015.95 1015.93 1015.95 1016.20 1016.39 1016.51 1016.77 1016.95 1017.04 1017.27 1017.40 1017.57 1017.62 1017.59 1017.70 1017.72 1017.75 1017.90 1017.92 1017.96 1018.02 1017.96 1017.92 1017.81 1017.54 1017.68 1017.67 1017.77 1017.74 1017.73 1018.15 1017.95 1017.92 1018.22 1018.38 1018.72 1018.78 1019.02 1019.22 1019.42 1019.59
1016.16 1016.27 1016.25 1016.24 1016.25 1016.33 1016.59 1016.72 1016.94 1017.06 1017.23 1017.32 1017.47 1017.40 1017.63 1017.90 1017.82 1017.77 1017.73 1017.64 1017.67 1017.65 1017.74 1017.87 1017.68 1017.80 1017.41 1017.32 1017.21 1017.45 1017.65 1017.79 1018.11 1018.15 1017.81 1017.74 1018.23 1018.48 1018.66 1018.85 1019.04 1019.32 1019.39
1016.25 1016.42 1016.53 1016.45 1016.50 1016.58 1016.65 1016.95 1017.15 1017.26 1017.37 1017.52 1017.62 1017.71 1017.91 1017.80 1017.72 1017.69 1017.73 1017.57 1017.44 1017.44 1017.57 1017.87 1017.65 1017.76 1017.58 1017.35 1017.20 1017.22 1017.79 1018.13 1018.09 1018.24 1017.97 1017.75 1017.85 1018.21 1018.51 1018.78 1018.99 1019.24 1019.38
1015.79 1016.28 1016.47 1016.45 1016.56 1016.79 1016.82 1017.16 1017.33 1017.47 1017.61 1017.71 1017.77 1017.64 1017.66 1017.74 1017.84 1017.88 1017.78 1017.66 1017.50 1017.45 1017.85 1018.15 1017.97 1018.08 1017.87 1017.65 1017.25 1017.20 1017.20 1017.64 1017.85 1017.84 1017.86 1017.54 1017.60 1017.87 1018.20 1018.53 1018.90 1019.00 1019.16
1015.66 1015.94 1016.16 1016.35 1016.65 1016.82 1016.97 1017.28 1017.43 1017.53 1017.68 1017.93 1017.81 1017.62 1017.73 1018.01 1018.01 1017.77 1017.87 1017.61 1017.52 1017.66 1018.02 1018.03 1018.20 1017.95 1017.99 1017.82 1017.51 1017.04 1016.79 1016.90 1017.22 1017.34 1017.75 1017.83 1017.62 1017.55 1017.90 1018.23 1018.51 1018.83 1018.92
1015.48 1015.68 1015.98 1016.23 1016.63 1016.68 1016.93 1017.28 1017.44 1017.50 1017.52 1017.72 1017.71 1017.73 1017.63 1017.79 1017.84 1017.84 1017.96 1017.74 1017.80 1017.73 1018.00 1018.02 1017.93 1018.20 1018.08 1017.59 1017.28 1017.22 1016.80 1016.71 1016.97 1016.95 1017.06 1017.30 1017.41 1017.87 1017.74 1017.89 1018.17 1018.47 1018.65
1015.12 1015.27 1015.59 1016.02 1016.25 1016.52 1016.74 1017.06 1017.32 1017.30 1017.22 1017.39 1017.63 1017.61 1017.56 1017.45 1017.60 1017.69 1017.62 1017.65 1017.74 1017.64 1017.51 1017.52 1017.74 1017.50 1018.00 1017.86 1017.43 1017.12 1016.89 1016.52 1016.65 1016.46 1016.43 1016.54 1016.93 1017.23 1017.70 1018.02 1017.93 1018.04 1018.41
1014.68 1014.84 1015.18 1015.66 1015.92 1016.36 1016.44 1016.56 1016.99 1017.05 1017.22 1017.21 1017.25 1017.37 1017.39 1017.36 1017.32 1017.27 1017.55 1017.52 1017.18 1017.13 1017.03 1017.16 1017.38 1017.40 1017.43 1017.99 1017.74 1017.14 1016.88 1016.42 1016.38 1016.21 1016.08 1016.27 1016.73 1016.78 1017.27 1017.54 1017.58 1017.92 1018.23
1014.20 1014.65 1014.81 1015.35 1015.82 1016.00 1016.25 1016.31 1016.62 1016.69 1016.76 1016.88 1017.02 1017.33 1017.32 1017.27 1017.13 1017.12 1017.18 1017.00 1016.78 1016.93 1017.04 1017.20 1017.49 1017.45 1017.64 1017.72 1018.00 1017.44 1016.96 1016.28 1016.12 1015.89 1015.78 1015.84 1016.23 1016.10 1016.18 1016.59 1017.06 1017.73 1018.07
1013.37 1014.03 1014.53 1014.89 1015.31 1015.70 1015.88 1016.09 1016.17 1016.36 1016.51 1016.62 1016.87 1016.86 1017.01 1017.07 1016.87 1016.94 1016.96 1016.86 1016.87 1017.05 1017.03 1017.24 1017.42 1017.61 1017.81 1017.81 1017.69 1017.20 1017.20 1016.92 1016.59 1015.75 1015.62 1015.73 1015.84 1015.83 1015.96 1015.97 1016.89 1017.48 1017.17
1013.10 1013.47 1013.84 1014.30 1015.01 1015.24 1015.80 1016.14 1016.36 1016.49 1016.45 1016.25 1016.47 1016.52 1016.37 1016.46 1016.63 1016.85 1016.81 1016.89 1017.02 1017.23 1017.30 1017.40 1017.48 1017.56 1017.81 1017.90 1017.57 1017.41 1017.46 1017.21 1016.83 1016.77 1016.54 1016.10 1016.03 1015.57 1015.54 1015.89 1016.41 1016.57 1016.77
1013.15 1013.49 1013.80 1014.42 1014.81 1015.36 1015.64 1016.09 1016.63 1016.75 1016.44 1016.19 1015.92 1015.71 1016.29 1016.45 1016.40 1016.64 1016.86 1016.98 1017.26 1017.60 1017.58 1017.65 1017.67 1017.77 1017.82 1017.82 1018.04 1018.01 1017.75 1017.66 1017.42 1017.32 1016.93 1016.77 1016.58 1016.24 1015.69 1015.71 1016.10 1016.45 1016.40
1012.36 1012.96 1013.36 1013.67 1014.13 1014.68 1015.00 1015.23 1015.53 1015.81 1016.02 1015.86 1015.81 1015.72 1015.50 1015.62 1015.89 1016.11 1016.46 1016.80 1017.05 1017.51 1017.77 1017.58 1017.61 1017.77 1017.91 1018.01 1018.15 1018.48 1018.39 1018.14 1017.97 1017.97 1017.49 1017.28 1017.02 1016.77 1016.67 1016.32 1016.26 1016.71 1016.82
1012.13 1012.40 1012.81 1013.17 1013.51 1013.69 1014.11 1014.76 1015.32 1015.76 1016.02 1016.31 1016.18 1015.75 1015.51 1015.08 1015.36 1015.73 1015.93 1016.25 1017.18 1017.60 1017.89 1017.84 1017.75 1017.93 1018.11 1018.14 1018.19 1018.51 1018.67 1018.72 1018.77 1018.49 1018.11 1017.93 1017.63 1017.31 1017.26 1017.66 1017.64 1017.53 1017.62
1011.22 1011.81 1012.15 1012.75 1013.32 1013.52 1013.99 1014.52 1014.95 1015.12 1015.78 1015.72 1015.76 1015.97 1015.87 1015.80 1015.89 1015.86 1016.12 1016.43 1016.76 1017.11 1017.75 1018.15 1017.81 1017.65 1018.10 1018.15 1018.32 1018.36 1018.58 1018.81 1018.97 1019.30 1018.87 1018.57 1018.43 1018.43 1018.17 1018.11 1018.41 1018.41 1018.66
1011.70 1012.20 1011.71 1012.05 1012.91 1013.31 1013.78 1014.14 1014.76 1014.79 1014.99 1015.36 1015.94 1016.34 1016.89 1016.83 1016.71 1016.68 1017.09 1017.38 1017.48 1017.48 1017.62 1018.16 1018.02 1017.97 1018.26 1018.59 1018.74 1018.56 1018.70 1018.98 1019.07 1019.59 1020.12 1019.77 1019.47 1019.46 1019.25 1018.92 1019.20 1019.27 1019.15
1011.84 1012.19 1012.66 1012.27 1012.41 1012.89 1013.42 1013.92 1014.30 1014.84 1015.33 1015.76 1016.24 1016.61 1017.16 1017.29 1017.39 1017.59 1017.71 1017.96 1018.07 1018.15 1018.23 1018.42 1018.62 1018.47 1018.88 1018.80 1018.91 1018.99 1019.00 1019.27 1019.66 1020.02 1020.41 1020.59 1020.51 1020.42 1020.10 1020.01 1019.92 1019.81 1019.83
Wind_Speed
4 5 10 10 10 11 12 13 14 15 15 15 15 15 15 15 15 14 14 14 14 13 12 11 11 11 11 11 11 10 10 11 11 12 12 11 11 11 12 13 13 8 13
8 5 10 11 11 11 11 13 13 14 14 14 15 16 15 15 15 15 14 14 13 14 13 11 11 11 11 11 10 10 9 9 9 11 11 8 11 11 13 14 14 11 14
9 7 8 11 12 11 12 12 13 13 14 14 15 16 15 14 14 13 14 13 13 14 12 11 11 10 10 10 10 11 9 7 7 7 8 3 4 12 12 14 15 15 14
9 6 6 12 12 12 12 11 12 12 13 13 14 14 14 13 13 13 14 13 12 13 12 11 11 11 9 9 9 10 9 5 7 5 3 3 7 10 12 13 13 13 14
7 6 7 13 13 13 12 12 12 12 13 13 13 13 13 12 12 13 13 12 11 11 11 10 9 9 7 6 6 6 6 6 5 4 2 2 3 8 11 11 11 12 12
9 8 12 14 14 13 13 13 12 12 13 13 12 13 12 12 12 13 12 11 10 9 9 8 7 7 6 4 3 4 3 4 6 4 5 4 2 9 11 11 11 11 10
7 6 9 14 14 13 13 13 13 13 12 14 13 13 11 10 11 11 10 9 8 8 7 6 5 5 3 2 1 1 1 0 3 3 5 6 4 10 11 10 11 11 11
8 5 7 13 13 13 12 13 13 12 12 13 11 11 9 9 8 8 8 7 6 6 5 4 4 3 3 4 3 3 2 1 3 1 5 5 8 10 12 11 12 12 13
6 5 5 6 9 13 13 11 11 11 10 11 10 9 8 8 7 6 5 4 3 4 3 3 4 5 5 5 7 5 2 5 0 2 4 4 11 11 12 12 12 13 12
5 5 5 5 5 5 5 11 10 10 10 9 9 9 8 8 6 6 3 2 1 1 2 3 5 7 9 7 9 10 6 5 2 3 3 4 12 14 13 13 13 13 12
4 4 4 5 5 5 4 5 8 9 9 9 8 9 6 2 2 3 5 4 3 2 2 3 4 8 9 9 11 10 8 1 1 3 3 11 13 15 15 14 14 14 15
6 5 4 5 5 4 4 3 4 4 3 4 4 4 3 4 4 4 4 5 4 4 6 4 4 5 6 4 4 8 3 2 2 3 2 9 14 16 15 14 14 15 15
8 6 6 6 6 5 3 3 2 2 2 3 5 5 5 3 2 1 2 2 1 1 3 3 3 0 4 4 4 4 3 4 3 3 5 10 14 17 17 15 15 16 16
8 7 7 6 6 6 3 2 3 3 3 3 4 4 4 3 3 4 2 4 3 0 4 2 1 3 4 5 6 6 6 4 2 1 2 9 11 17 17 16 16 16 16
9 8 7 7 6 6 4 3 3 4 4 4 4 3 4 4 5 3 3 3 2 2 2 1 2 2 2 5 4 5 7 7 4 3 3 7 10 13 16 17 17 18 18
10 11 9 7 7 6 5 6 4 4 4 4 4 5 5 5 4 4 4 4 3 1 2 1 3 4 3 4 6 5 8 6 4 6 5 5 9 10 15 15 17 18 17
12 12 12 10 8 8 7 7 5 5 4 4 6 6 6 6 6 5 4 4 2 1 2 0 2 3 4 1 6 5 5 6 6 8 5 4 4 12 13 16 18 17 16
12 13 12 10 9 8 7 5 4 5 5 4 4 4 6 7 4 4 4 4 2 2 2 3 3 3 3 3 2 4 4 2 4 5 6 5 5 6 12 19 19 14 14
16 13 12 10 11 9 6 4 5 5 5 4 3 5 7 6 5 4 4 3 3 3 3 3 3 2 2 3 4 3 3 3 4 5 0 4 6 7 5 12 16 13 18
14 14 14 12 11 9 5 4 2 2 3 4 5 6 8 6 7 6 4 4 4 3 3 2 3 2 3 2 3 1 3 3 4 5 5 4 5 3 5 6 8 12 12
12 13 14 12 9 7 3 4 2 4 3 2 4 6 7 5 7 4 3 2 3 4 5 4 1 2 1 3 2 2 2 3 6 5 4 4 5 5 1 5 3 3 2
17 15 12 12 9 7 6 4 4 3 2 2 2 2 5 10 9 7 6 6 6 2 3 3 2 1 0 2 2 1 2 3 4 5 4 5 7 5 6 8 9 7 7
16 15 14 13 12 9 8 4 3 3 2 2 2 2 3 7 10 8 7 4 3 2 1 1 2 1 1 2 3 2 1 4 1 3 5 7 9 7 7 8 9 9 8
18 14 13 12 10 8 8 7 6 5 5 4 3 2 2 6 3 3 4 5 5 4 4 1 1 2 1 2 2 2 2 1 3 1 4 5 8 9 10 8 8 8 7
8 10 13 12 10 9 8 9 6 5 4 3 3 4 4 4 6 7 7 6 3 2 3 2 3 3 2 2 2 0 2 2 0 2 1 4 6 6 7 7 6 6 6
4 6 8 10 11 10 9 8 9 8 6 4 4 3 3 3 4 5 4 4 4 3 4 4 4 7 4 4 3 3 2 2 3 1 2 2 3 3 4 6 7 5 4
Wind_Direction
200 180 156 145 134 123 116 109 104 102 103 108 105 109 111 114 118 118 119 114 110 106 104 99 91 91 90 83 79 83 90 100 103 103 101 109 113 118 122 121 121 117 129
148 172 146 135 128 119 113 113 110 107 106 106 109 110 112 111 112 114 113 111 107 105 95 94 91 87 91 88 95 93 88 89 96 102 112 125 118 121 135 125 126 133 137
147 148 144 141 134 127 123 121 112 111 108 108 109 108 109 110 111 115 114 106 100 100 101 96 90 94 97 96 89 85 68 90 94 88 92 81 113 127 136 135 137 134 136
141 134 133 136 136 130 128 122 120 115 112 112 112 114 111 109 113 114 105 107 109 105 101 98 93 89 87 86 86 88 82 88 90 53 43 82 123 132 136 145 141 141 143
129 129 147 138 136 132 132 132 124 126 123 119 116 113 115 120 123 112 111 114 110 101 96 91 83 83 78 77 103 111 123 135 163 122 344 58 113 147 144 150 154 154 152
140 143 145 144 141 145 144 134 133 132 131 125 121 113 108 113 115 115 116 111 105 96 88 82 79 78 77 72 64 83 114 181 198 184 172 183 162 152 157 165 169 165 162
139 145 142 143 146 144 143 146 147 143 135 127 121 119 124 125 121 118 117 116 112 102 84 66 60 60 53 59 70 115 208 323 111 171 173 166 186 164 164 180 184 177 175
138 133 146 148 149 151 154 160 153 151 137 128 126 125 127 121 116 118 122 123 111 96 76 48 29 16 334 333 316 314 284 304 118 27 153 160 177 189 172 184 191 186 182
129 125 130 148 157 156 161 158 157 143 137 125 126 126 131 127 130 135 140 133 111 96 65 24 347 323 311 314 281 273 267 354 356 159 151 152 171 199 185 187 199 184 190
125 133 150 152 150 135 155 159 155 149 139 132 136 138 142 150 148 143 124 61 91 82 82 1 331 316 305 293 285 300 284 353 314 190 169 162 174 196 196 192 199 197 197
143 161 160 159 153 156 153 163 156 141 140 147 143 153 122 100 119 144 175 189 204 224 246 101 334 315 297 312 288 275 280 351 235 254 182 173 185 198 206 202 200 204 199
178 185 181 176 177 165 162 131 144 155 127 132 144 135 143 171 190 180 197 208 190 215 187 193 239 275 305 306 291 290 129 196 219 255 227 189 184 200 211 207 205 207 208
177 174 185 189 179 181 179 166 162 163 150 158 171 184 179 162 135 125 139 196 222 273 63 52 313 305 246 264 282 280 264 211 212 209 232 198 196 199 212 208 211 211 212
174 186 175 187 180 187 193 167 167 166 174 179 219 183 158 146 167 183 172 197 222 224 62 13 81 306 294 287 268 263 271 257 238 291 287 263 215 202 211 214 215 218 218
176 187 184 179 183 188 198 159 159 187 191 179 199 186 181 161 178 196 188 248 304 308 126 301 315 198 302 296 283 250 265 261 239 221 221 243 231 234 219 215 219 221 221
186 185 174 184 179 178 196 191 191 202 206 179 180 204 207 192 163 201 206 217 230 209 142 152 276 320 73 315 305 266 265 273 248 237 229 229 223 240 234 235 229 223 221
192 182 177 177 179 185 200 195 178 203 195 195 197 206 216 216 179 191 199 224 235 318 358 57 301 350 334 140 286 276 261 252 259 251 231 235 209 237 232 234 237 234 229
177 185 177 177 183 191 200 203 180 203 200 198 207 169 215 256 212 175 208 211 224 303 347 346 331 332 321 303 227 255 285 259 266 260 222 205 197 232 211 219 233 233 239
176 177 179 172 174 184 184 190 173 194 204 203 194 189 198 214 232 210 211 218 224 239 234 216 228 175 272 272 258 18 334 325 335 347 40 203 213 217 212 214 215 213 232
172 175 179 175 169 166 158 120 68 300 229 213 192 198 209 206 194 209 235 221 211 232 258 233 206 170 215 312 326 1 331 356 1 20 343 354 319 240 203 179 197 213 215
174 170 175 169 173 153 151 135 157 206 205 233 241 241 187 214 202 189 239 198 157 204 216 242 225 208 58 38 6 333 306 16 27 7 353 356 353 342 328 179 164 126 180
180 183 178 183 175 175 163 167 166 163 159 139 292 258 218 156 178 174 184 184 188 186 250 212 165 132 197 55 117 99 349 352 12 9 5 352 6 15 22 44 73 76 71
188 187 189 187 186 188 176 141 109 90 80 148 214 221 213 165 168 180 180 169 105 169 218 334 59 128 237 65 79 155 113 214 14 350 355 16 17 37 60 58 60 69 69
196 191 189 188 189 193 158 155 175 169 168 198 172 237 14 9 31 87 88 100 129 131 111 347 186 158 185 189 109 31 31 141 159 87 346 0 33 42 54 57 51 53 52
190 202 196 186 187 190 176 178 176 170 186 137 109 97 45 30 36 29 31 28 60 62 99 82 68 74 46 58 341 124 75 48 57 131 333 357 42 30 41 52 51 52 54
193 224 217 182 189 186 177 167 172 177 165 127 130 153 135 84 59 52 56 57 61 69 82 82 68 69 58 75 56 53 62 91 32 77 120 325 52 31 27 40 42 33 24